Twin Bridges, CA

4:46 AM PDT on September 29, 2016 (GMT -0700)
Lake Tahoe

Weather History for KTVL - May, 2014

Change the Weather History Date:

Friday, May 30, 2014

  Actual Average Record
Temperature  
Mean Temperature 51 °F 51 °F  
Max Temperature 70 °F 67 °F 84 °F (1986)
Min Temperature 32 °F 35 °F 23 °F (1989)
Degree Days  
Heating Degree Days 14 14  
Month to date heating degree days 440 517  
Since 1 July heating degree days 6481 7407  
Cooling Degree Days 0 0  
Month to date cooling degree days 0 0  
Year to date cooling degree days 0 0  
Growing Degree Days 1 (Base 50)    
Moisture  
Dew Point 24 °F    
Average Humidity 47    
Maximum Humidity 82    
Minimum Humidity 11    
Precipitation  
Precipitation 0.00 in - 0.21 in (1991)
Month to date precipitation 1.30  
Year to date precipitation 12.40  
Sea Level Pressure  
Sea Level Pressure 29.94 in    
Wind  
Wind Speed 4 mph (SSW)    
Max Wind Speed 18 mph    
Max Gust Speed 30 mph    
Visibility 10 miles    
Events      
T = Trace of Precipitation, MM = Missing Value Source: NWS Daily Summary

Daily Weather History Graph

Daily Weather History Graph

Search for Another Location

Airport or City:

Trip Planner

Search our weather history database for the weather conditions in past years. The results will help you decide how hot, cold, wet, or windy it might be!

Date:

Astronomy

May. 30, 2014 Rise Set
Actual Time 5:37 AM PDT 8:18 PM PDT
Civil Twilight 5:06 AM PDT 8:49 PM PDT
Nautical Twilight 4:27 AM PDT 9:28 PM PDT
Astronomical Twilight 3:43 AM PDT 10:12 PM PDT
Moon 7:25 AM PDT (5/30) 9:59 PM PDT (5/30)
Length of Visible Light 15h 43m
Length of Day
14h 40m
Waxing Crescent, 4% of the Moon is Illuminated
May 30
Waxing Crescent
Jun 5
First Quarter
Jun 12
Full
Jun 19
Last Quarter
Jun 27
New

Hourly Weather History & Observations

Time (PDT) Temp. Windchill Dew Point Humidity Pressure Visibility Wind Dir Wind Speed Gust Speed Precip Events Conditions
12:53 AM 42.1 °F - 30.9 °F 65% 29.97 in 10.0 mi Calm Calm - N/A   Clear
1:53 AM 39.9 °F - 30.9 °F 70% 29.97 in 10.0 mi Calm Calm - N/A   Clear
2:53 AM 37.9 °F - 30.0 °F 73% 29.96 in 10.0 mi Calm Calm - N/A   Clear
3:53 AM 36.0 °F 32.1 °F 28.9 °F 76% 29.96 in 10.0 mi South 4.6 mph - N/A   Clear
5:53 AM 33.1 °F 30.0 °F 27.0 °F 78% 29.96 in 10.0 mi South 3.5 mph - N/A   Clear
6:53 AM 35.1 °F 32.2 °F 28.0 °F 76% 29.98 in 10.0 mi South 3.5 mph - N/A   Clear
7:53 AM 46.0 °F - 28.0 °F 50% 29.96 in 10.0 mi Calm Calm - N/A   Clear
8:53 AM 55.9 °F - 25.0 °F 30% 29.94 in 10.0 mi NE 4.6 mph - N/A   Clear
9:53 AM 60.1 °F - 24.1 °F 25% 29.93 in 10.0 mi NE 6.9 mph - N/A   Clear
11:53 AM 68.0 °F - 12.0 °F 11% 29.91 in 10.0 mi Variable 6.9 mph 17.3 mph N/A   Clear
12:53 PM 69.1 °F - 12.9 °F 11% 29.92 in 10.0 mi North - - N/A   Clear
3:53 PM 69.1 °F - 15.1 °F 13% 29.92 in 10.0 mi SW 11.5 mph 17.3 mph N/A   Clear
4:53 PM 66.0 °F - 15.1 °F 14% 29.94 in 10.0 mi SSW 12.7 mph 20.7 mph N/A   Clear
5:53 PM 64.9 °F - 19.9 °F 18% 29.94 in 10.0 mi SSW 15.0 mph 23.0 mph N/A   Clear
6:53 PM 62.1 °F - 21.9 °F 21% 29.94 in 10.0 mi SSW 11.5 mph 20.7 mph N/A   Clear
7:53 PM 60.1 °F - 25.0 °F 26% 29.93 in 10.0 mi SSW 9.2 mph - N/A   Clear
8:53 PM 55.9 °F - 28.0 °F 34% 29.93 in 10.0 mi South 9.2 mph - N/A   Clear
9:53 PM 57.0 °F - 23.0 °F 27% 29.92 in 10.0 mi South 10.4 mph - N/A   Clear
10:53 PM 50.0 °F - 23.0 °F 35% 29.94 in 10.0 mi West 3.5 mph - N/A   Clear
11:53 PM 43.0 °F - 25.0 °F 49% 29.95 in 10.0 mi Calm Calm - N/A   Clear